1384560025702,1.17658
1384560085702,1.16839
1384560145702,1.17051
1384560205702,1.17531
1384560265702,1.16691
1384560325702,1.17141
1384560385702,1.16963
1384560445702,1.16621
1384560505702,1.17801
1384560565702,1.17531
1384560625702,1.16608
1384560685702,1.16649
1384560745702,1.17213
1384560805702,1.16383
1384560865702,1.16774
1384560925701,1.16891
1384560985701,1.16031
1384561045701,1.17306
1384561105702,1.16448
1384561165702,1.16694
1384561225702,1.17301
1384561285702,1.17120
1384561345702,1.17607
1384561405702,1.17230
1384561465702,1.17389
1384561525702,1.16910
1384561585702,1.16743
1384561645702,1.16873
1384561705702,1.16697
1384561765702,1.17118
1384561825702,1.16767
1384561885702,1.16549
1384561945702,1.16967
1384562005702,1.16916
1384562065702,1.15999
1384562125702,1.17038
1384562185702,1.16300
1384562245702,1.16658
1384562305701,1.17061
1384562365701,1.16831
1384562425701,1.16665
1384562485702,1.17003
1384562545702,1.16796
1384562605702,1.17173
1384562665702,1.17880
1384562725702,1.17390
1384562785702,1.17735
1384562845702,1.18215
1384562905702,1.18341
1384562965702,1.18880
1384563025702,1.18742
1384563085702,1.18524
1384563145702,1.19087
1384563205702,1.18826
1384563265702,1.18668
1384563325702,1.18634
1384563385702,1.18187
1384563445702,1.18802
1384563505702,1.18081
1384563565702,1.16967
1384563625712,1.17039
1384563685712,1.17653
1384563745712,1.18243
1384563805712,1.16746
1384563865712,1.17942
1384563925712,1.17082
1384563985712,1.17065
1384564045712,1.16450
1384564105712,1.17092
1384564165712,1.16743
1384564225712,1.16602
1384564285712,1.16635
1384564345712,1.17297
1384564405712,1.16585
1384564465712,1.16448
1384564525712,1.15995
1384564585712,1.16901
1384564645712,1.16595
1384564705712,1.17470
1384564765712,1.16183
1384564825712,1.16860
1384564885712,1.17064
1384564945712,1.16953
1384565005712,1.17206
1384565065712,1.17125
1384565125712,1.17132
1384565185712,1.16774
1384565245712,1.16580
1384565305712,1.17080
1384565365712,1.16723
1384565425712,1.16951
1384565485712,1.17092
1384565545712,1.16279
1384565605712,1.17627
1384565665712,1.17766
1384565725712,1.17307
1384565785712,1.18201
1384565845712,1.17318
1384565905712,1.17653
1384565965712,1.17817
1384566025712,1.17619
1384566085712,1.17824
1384566145712,1.17642
1384566205712,1.17682
1384566265712,1.17992
1384566325712,1.18485
1384566385712,1.17584
1384566445712,1.17500
1384566505712,1.19110
1384566565712,1.18717
1384566625712,1.17796
1384566685712,1.17918
1384566745712,1.17348
1384566805712,1.17753
1384566865712,1.17540
1384566925712,1.17955
1384566985712,1.18307
1384567045712,1.18285
1384567105712,1.17456
1384567165712,1.17784
1384567225721,1.17927
1384567285721,1.18707
1384567345721,1.20197
1384567405721,1.20618
1384567465721,1.21613
1384567525721,1.21376
1384567585721,1.22160
1384567645721,1.21794
1384567705721,1.21962
1384567765721,1.21271
1384567825721,1.21108
1384567885721,1.20681
1384567945721,1.20886
1384568005721,1.21134
1384568065721,1.21712
1384568125721,1.20444
1384568185721,1.21263
1384568245721,1.20267
1384568305721,1.21249
1384568365721,1.21103
1384568425721,1.20702
1384568485721,1.21559
1384568545721,1.23003
1384568605721,1.23031
1384568665721,1.23219
1384568725721,1.22506
1384568785721,1.22421
1384568845721,1.21370
1384568905721,1.19783
1384568965721,1.19686
1384569025721,1.20030
1384569085721,1.19050
1384569145721,1.18851
1384569205721,1.19696
1384569265721,1.19100
1384569325721,1.20549
1384569385721,1.19244
1384569445721,1.20238
1384569505721,1.21368
1384569565721,1.21875
1384569625721,1.22841
1384569685721,1.23483
1384569745721,1.24372
1384569805721,1.25906
1384569865721,1.28375
1384569925721,1.27733
1384569985721,1.30058
1384570045721,1.29496
1384570105721,1.30607
1384570165721,1.30309
1384570225721,1.29831
1384570285721,1.30722
1384570345721,1.29386
1384570405721,1.29557
1384570465721,1.27391
1384570525721,1.27688
1384570585721,1.27886
1384570645721,1.27343
1384570705721,1.25722
1384570765721,1.25228
1384570825731,1.24595
1384570885731,1.24305
1384570945731,1.23090
1384571005731,1.23219
1384571065731,1.22570
1384571125731,1.22564
1384571185731,1.20830
1384571245731,1.21213
1384571305731,1.20026
1384571365731,1.20475
1384571425731,1.19958
1384571485731,1.19236
1384571545731,1.19927
1384571605731,1.19258
1384571665731,1.18495
1384571725731,1.19257
1384571785731,1.19981
1384571845731,1.19418
1384571905731,1.19920
1384571965731,1.19564
1384572025731,1.20624
1384572085731,1.19419
1384572145731,1.18689
1384572205731,1.18329
1384572265731,1.18935
1384572325731,1.19768
1384572385731,1.18121
1384572445731,1.17556
1384572505731,1.18491
1384572565731,1.17985
1384572625731,1.17597
1384572685731,1.18110
1384572745731,1.17686
1384572805731,1.17382
1384572865731,1.17078
1384572925731,1.17918
1384572985731,1.18334
1384573045731,1.18330
1384573105731,1.17938
1384573165731,1.18614
1384573225731,1.17504
1384573285731,1.17507
1384573345731,1.17669
1384573405731,1.17581
1384573465731,1.17710
1384573525731,1.17517
1384573585731,1.17493
1384573645731,1.19542
1384573705731,1.18584
1384573765731,1.18321
1384573825731,1.17605
1384573885731,1.19093
1384573945731,1.18613
1384574005731,1.18445
1384574065731,1.18641
1384574125731,1.18659
1384574185731,1.18524
1384574245731,1.20051
1384574305731,1.18660
1384574365731,1.19026
1384574425741,1.19233
1384574485741,1.18810
1384574545741,1.19461
1384574605741,1.18652
1384574665741,1.19865
1384574725741,1.19612
1384574785741,1.20354
1384574845741,1.21824
1384574905741,1.20902
1384574965741,1.21177
1384575025741,1.21696
1384575085741,1.21695
1384575145741,1.21020
1384575205741,1.20217
1384575265741,1.20826
1384575325741,1.19787
1384575385741,1.21272
1384575445741,1.20381
1384575505741,1.21131
1384575565741,1.22197
1384575625741,1.21641
1384575685741,1.21239
1384575745741,1.21515
1384575805741,1.22664
1384575865741,1.21842
1384575925741,1.21567
1384575985741,1.21566
1384576045741,1.20891
1384576105741,1.21114
1384576165741,1.20107
1384576225741,1.20219
1384576285741,1.19448
1384576345741,1.18579
1384576405741,1.19149
1384576465741,1.19115
1384576525741,1.18752
1384576585741,1.19123
1384576645741,1.19218
1384576705741,1.18705
1384576765741,1.18854
1384576825741,1.18755
1384576885741,1.17891
1384576945741,1.18668
1384577005741,1.18050
1384577065741,1.19092
1384577125741,1.19545
1384577185741,1.18591
1384577245741,1.18787
1384577305741,1.18998
1384577365741,1.19587
1384577425741,1.20578
1384577485741,1.23740
1384577545741,1.29052
1384577605741,1.35273
1384577665741,1.41888
1384577725741,1.43575
1384577785741,1.39812
1384577845741,1.38187
1384577905741,1.34133
1384577965741,1.30788
1384578025751,1.28136
1384578085751,1.26615
1384578145751,1.26433
1384578205751,1.25503
1384578265751,1.25683
1384578325751,1.25657
1384578385751,1.25116
1384578445751,1.25422
1384578505751,1.24226
1384578565751,1.23760
1384578625751,1.24495
1384578685751,1.25508
1384578745751,1.23959
1384578805751,1.24918
1384578865751,1.24322
1384578925751,1.24241
1384578985751,1.23629
1384579045751,1.23164
1384579105751,1.23643
1384579165751,1.23410
1384579225751,1.22677
1384579285751,1.22029
1384579345751,1.22425
1384579405751,1.21957
1384579465751,1.21928
1384579525751,1.23001
1384579585751,1.22806
1384579645751,1.21739
1384579705751,1.22522
1384579765751,1.22633
1384579825751,1.21934
1384579885751,1.22307
1384579945751,1.22091
1384580005751,1.22691
1384580065751,1.24536
1384580125751,1.25138
1384580185751,1.25803
1384580245751,1.27109
1384580305751,1.26358
1384580365751,1.26531
1384580425751,1.26565
1384580485751,1.25828
1384580545751,1.25423
1384580605751,1.26182
1384580665751,1.25165
1384580725751,1.24747
1384580785751,1.24961
1384580845751,1.24698
1384580905751,1.23802
1384580965751,1.23883
1384581025751,1.24725
1384581085751,1.24860
1384581145751,1.23920
1384581205751,1.23454
1384581265751,1.21686
1384581325751,1.21789
1384581385751,1.21813
1384581445751,1.22809
1384581505751,1.22252
1384581565751,1.22189
1384581625761,1.22313
1384581685761,1.24204
1384581745761,1.26524
1384581805761,1.26676
1384581865761,1.25997
1384581925761,1.25589
1384581985761,1.23223
1384582045761,1.21831
1384582105761,1.21151
1384582165761,1.20785
1384582225761,1.20804
1384582285761,1.21347
1384582345761,1.20463
1384582405761,1.21306
1384582465761,1.20177
1384582525761,1.20184
1384582585761,1.19835
1384582645761,1.20490
1384582705761,1.21414
1384582765761,1.22308
1384582825761,1.23346
1384582885761,1.25036
1384582945761,1.23755
1384583005761,1.24742
1384583065761,1.25416
1384583125761,1.27065
1384583185761,1.27725
1384583245761,1.29598
1384583305761,1.29732
1384583365761,1.32005
1384583425761,1.32465
1384583485761,1.32970
1384583545761,1.34288
1384583605761,1.34170
1384583665761,1.35314
1384583725761,1.35129
1384583785761,1.35823
1384583845761,1.37268
1384583905761,1.37716
1384583965761,1.40023
1384584025761,1.40308
1384584085761,1.39946
1384584145761,1.38971
1384584205761,1.36770
1384584265761,1.37060
1384584325761,1.37409
1384584385761,1.35251
1384584445761,1.36635
1384584505761,1.35435
1384584565761,1.33735
1384584625761,1.33257
1384584685761,1.31893
1384584745761,1.31799
1384584805761,1.31514
1384584865761,1.31389
1384584925761,1.31842
1384584985761,1.30949
1384585045761,1.30458
1384585105761,1.29983
1384585165761,1.29203
1384585225771,1.29181
1384585285771,1.28444
1384585345771,1.28805
1384585405771,1.27342
1384585465771,1.27064
1384585525771,1.28566
1384585585771,1.28607
1384585645771,1.28308
1384585705771,1.28426
1384585765771,1.27840
1384585825771,1.28221
1384585885771,1.27703
1384585945771,1.27175
1384586005771,1.27334
1384586065771,1.26466
1384586125771,1.26910
1384586185771,1.26540
1384586245771,1.26768
1384586305771,1.26470
1384586365771,1.27131
1384586425771,1.25703
1384586485771,1.25984
1384586545771,1.25707
1384586605771,1.24895
1384586665771,1.24972
1384586725771,1.25768
1384586785771,1.25860
1384586845771,1.24830
1384586905771,1.25451
1384586965771,1.24283
1384587025771,1.25977
1384587085771,1.25031
1384587145771,1.25147
1384587205771,1.25801
1384587265771,1.25777
1384587325771,1.26078
1384587385771,1.26031
1384587445771,1.26821
1384587505771,1.26347
1384587565771,1.27098
1384587625771,1.25957
1384587685771,1.26781
1384587745771,1.25996
1384587805771,1.26799
1384587865771,1.26860
1384587925771,1.27106
1384587985771,1.27150
1384588045771,1.28732
1384588105771,1.30962
1384588165771,1.40366
1384588225771,1.45738
1384588285771,1.47289
1384588345771,1.44881
1384588405771,1.42989
1384588465771,1.41363
1384588525771,1.39606
1384588585771,1.39966
1384588645771,1.39143
1384588705771,1.38585
1384588765771,1.37210
1384588825782,1.36470
1384588885782,1.36904
1384588945782,1.36842
1384589005782,1.36758
1384589065782,1.35955
1384589125782,1.37040
1384589185782,1.37095
1384589245782,1.36488
1384589305782,1.36635
1384589365782,1.37602
1384589425782,1.38228
1384589485782,1.37679
1384589545782,1.38787
1384589605782,1.39404
1384589665782,1.39239
1384589725782,1.40375
1384589785782,1.39541
1384589845782,1.40518
1384589905782,1.41380
1384589965782,1.41242
1384590025782,1.42753
1384590085782,1.41737
1384590145782,1.42273
1384590205782,1.42122
1384590265782,1.43384
1384590325782,1.42215
1384590385782,1.42352
1384590445782,1.43169
1384590505782,1.42202
1384590565782,1.42726
1384590625782,1.42434
1384590685782,1.41916
1384590745782,1.42255
1384590805782,1.41652
1384590865782,1.41700
1384590925782,1.41240
1384590985782,1.41512
1384591045782,1.41544
1384591105782,1.39822
1384591165782,1.39066
1384591225782,1.38804
1384591285782,1.39393
1384591345782,1.39675
1384591405782,1.38181
1384591465782,1.38788
1384591525782,1.38381
1384591585782,1.37676
1384591645782,1.37082
1384591705782,1.36443
1384591765782,1.35833
1384591825782,1.36545
1384591885782,1.35585
1384591945782,1.33994
1384592005782,1.35105
1384592065782,1.34182
1384592125782,1.33985
1384592185782,1.34135
1384592245782,1.33644
1384592305782,1.32648
1384592365782,1.32606
1384592425792,1.34153
1384592485792,1.32931
1384592545792,1.32562
1384592605792,1.32672
1384592665792,1.31387
1384592725792,1.31689
1384592785792,1.31587
1384592845792,1.31380
1384592905792,1.31292
1384592965792,1.30379
1384593025792,1.30188
1384593085792,1.29847
1384593145792,1.29728
1384593205792,1.30007
1384593265792,1.30042
1384593325792,1.29345
1384593385792,1.29188
1384593445792,1.29328
1384593505792,1.29076
1384593565792,1.29236
1384593625792,1.28660
1384593685792,1.28520
1384593745792,1.28390
1384593805792,1.27941
1384593865792,1.26959
1384593925792,1.27539
1384593985792,1.27698
1384594045792,1.27067
1384594105792,1.26168
1384594165792,1.26722
1384594225792,1.26186
1384594285792,1.26345
1384594345792,1.26083
1384594405792,1.25782
1384594465792,1.25375
1384594525792,1.25628
1384594585792,1.26085
1384594645792,1.25481
1384594705792,1.25303
1384594765792,1.27148
1384594825792,1.26278
1384594885792,1.25917
1384594945792,1.24988
1384595005792,1.24280
1384595065792,1.24431
1384595125792,1.24031
1384595185792,1.23636
1384595245792,1.23917
1384595305792,1.23345
1384595365792,1.23025
1384595425792,1.22911
1384595485792,1.23161
1384595545792,1.22718
1384595605792,1.22946
1384595665792,1.23860
1384595725792,1.23523
1384595785792,1.21806
1384595845792,1.22744
1384595905792,1.22107
1384595965792,1.22890
1384596025803,1.21564
1384596085803,1.22043
1384596145803,1.22110
1384596205803,1.21479
1384596265803,1.22377
1384596325803,1.21472
1384596385803,1.21545
1384596445803,1.21458
1384596505803,1.20977
1384596565803,1.21700
1384596625803,1.20983
1384596685803,1.20513
1384596745803,1.20490
1384596805803,1.20758
1384596865803,1.19989
1384596925803,1.20502
1384596985803,1.19424
1384597045803,1.20265
1384597105803,1.19830
1384597165803,1.19642
1384597225803,1.19402
1384597285803,1.18348
1384597345803,1.18989
1384597405803,1.18539
1384597465803,1.18357
1384597525803,1.18007
1384597585803,1.17802
1384597645803,1.18363
1384597705803,1.17719
1384597765803,1.17747
1384597825803,1.18679
1384597885803,1.17902
1384597945803,1.18155
1384598005803,1.18088
1384598065803,1.18093
1384598125803,1.17076
1384598185803,1.17884
1384598245803,1.16914
1384598305803,1.17733
1384598365803,1.17696
1384598425803,1.17643
1384598485803,1.17877
1384598545803,1.18941
1384598605803,1.18049
1384598665803,1.17845
1384598725803,1.18001
1384598785803,1.17933
1384598845803,1.17260
1384598905803,1.17421
1384598965803,1.17837
1384599025803,1.16934
1384599085803,1.17515
1384599145803,1.18064
1384599205803,1.17882
1384599265803,1.17516
1384599325803,1.16993
1384599385803,1.16813
1384599445803,1.16759
1384599505803,1.16863
1384599565803,1.16358
1384599625815,1.16250
1384599685814,1.16499
1384599745814,1.16149
1384599805814,1.16563
1384599865814,1.16159
1384599925814,1.16157
1384599985814,1.15848
1384600045814,1.15829
1384600105814,1.16081
1384600165815,1.15959
1384600225815,1.16519
1384600285815,1.16382
1384600825815,1.15234
1384600885815,1.22550
1384600945815,1.15557
1384601005814,1.15635
1384601065814,1.15382
1384601125814,1.15610
1384601185814,1.15832
1384601245814,1.15477
1384601305814,1.15240
1384601365814,1.15568
1384601425814,1.15879
1384601485815,1.16241
1384601545815,1.15839
1384601605815,1.16913
1384601665815,1.16507
1384601725814,1.16563
1384601785814,1.16207
1384601845815,1.16116
1384601905815,1.16442
1384601965815,1.16746
1384602025815,1.16419
1384602085815,1.17718
1384602145815,1.17620
1384602205815,1.17947
1384602265815,1.18324
1384602325815,1.18037
1384602385814,1.18706
1384602445814,1.18118
1384602505814,1.17935
1384602565814,1.17942
1384602625814,1.17424
1384602685814,1.18331
1384602745814,1.16315
1384602805814,1.16772
1384602865815,1.17253
1384602925815,1.17375
1384602985815,1.17870
1384603045814,1.16791
1384603105814,1.18253
1384603165815,1.17617
1384603225826,1.17285
1384603285826,1.17752
1384603345826,1.17010
1384603405826,1.17672
1384603465826,1.17429
1384603525826,1.17189
1384603585826,1.17585
1384603645826,1.18229
1384603705826,1.16587
1384603765826,1.18532
1384603825826,1.18503
1384603885826,1.19160
1384603945826,1.18935
1384604005826,1.18570
1384604065826,1.17333
1384604125826,1.17403
1384604185826,1.18027
1384604245826,1.16552
1384604305826,1.16696
1384604365826,1.16834
1384604425826,1.15743
1384604485826,1.16574
1384604545826,1.15948
1384604605826,1.16254
1384604665826,1.16020
1384604725826,1.16000
1384604785826,1.15461
1384604845826,1.16743
1384604905826,1.16895
1384604965826,1.18077
1384605025826,1.15624
1384605085826,1.16397
1384605145826,1.17472
1384605205826,1.16524
1384605265826,1.16350
1384605325826,1.17660
1384605385826,1.17092
1384605445826,1.17960
1384605505826,1.18099
1384605565826,1.17823
1384605625826,1.17381
1384605685826,1.17800
1384605745826,1.16995
1384605805826,1.17018
1384605865826,1.16960
1384605925826,1.17314
1384605985826,1.17015
1384606045826,1.16645
1384606105826,1.17696
1384606165826,1.16610
1384606225826,1.16476
1384606285826,1.17767
1384606345826,1.16894
1384606405826,1.16765
1384606465826,1.17389
1384606525826,1.16640
1384606585826,1.18254
1384606645826,1.18156
1384606705826,1.18112
1384606765826,1.18020
1384606825837,1.18246
1384606885837,1.17991
1384606945837,1.18808
1384607005837,1.17994
1384607065837,1.18263
1384607125837,1.17218
1384607185838,1.17672
1384607245838,1.17417
1384607305837,1.18596
1384607365837,1.18910
1384607425837,1.17034
1384607485837,1.17756
1384607545838,1.17863
1384607605838,1.16967
1384607665838,1.16610
1384607725838,1.17354
1384607785838,1.17866
1384607845838,1.16949
1384607905838,1.16090
1384607965838,1.15734
1384608025837,1.16671
1384608085837,1.17002
1384608145837,1.17548
1384608205837,1.15944
1384608265837,1.16206
1384608325837,1.15371
1384608385837,1.15714
1384608445837,1.15555
1384608505837,1.15069
1384608565838,1.16536
1384608625838,1.16145
1384608685837,1.16524
1384608745837,1.15476
1384608805837,1.15608
1384608865838,1.14865
1384608925838,1.15524
1384608985838,1.15026
1384609045838,1.15466
1384609105838,1.15901
1384609165838,1.16068
1384609225838,1.15679
1384609285838,1.16059
1384609345837,1.16469
1384609405837,1.16310
1384609465837,1.16826
1384609525837,1.17673
1384609585837,1.17930
1384609645837,1.18809
1384609705837,1.19307
1384609765837,1.20151
1384609825837,1.20313
1384609885838,1.21307
1384609945838,1.20991
1384610005837,1.21175
1384610065837,1.19813
1384610125837,1.20451
1384610185837,1.19704
1384610245838,1.20856
1384610305838,1.20159
1384610365838,1.19752
1384610425849,1.19224
1384610485849,1.18936
1384610545849,1.18980
1384610605849,1.19396
1384610665849,1.18840
1384610725849,1.19574
1384610785849,1.17413
1384610845849,1.17986
1384610905849,1.17969
1384610965849,1.18248
1384611025849,1.18280
1384611085849,1.17694
1384611145849,1.17608
1384611205849,1.17785
1384611265849,1.16658
1384611325849,1.17714
1384611385849,1.17692
1384611445849,1.18089
1384611505849,1.18755
1384611565849,1.19109
1384611625849,1.19123
1384611685849,1.19810
1384611745849,1.19078
1384611805849,1.20125
1384611865849,1.18624
1384611925849,1.18421
1384611985849,1.18101
1384612045849,1.18989
1384612105849,1.18796
1384612165849,1.17401
1384612225849,1.17823
1384612285849,1.17207
1384612345849,1.17932
1384612405849,1.18444
1384612465849,1.18771
1384612525849,1.18406
1384612585849,1.18232
1384612645849,1.18657
1384612705849,1.17553
1384612765849,1.17055
1384612825849,1.18500
1384612885849,1.19949
1384612945849,1.17217
1384613005849,1.17957
1384613065849,1.17485
1384613125849,1.18260
1384613185849,1.18491
1384613245849,1.18716
1384613305849,1.18168
1384613365849,1.17743
1384613425849,1.18735
1384613485849,1.18418
1384613545849,1.18044
1384613605849,1.17392
1384613665849,1.17363
1384613725849,1.16085
1384613785849,1.16610
1384613845849,1.15901
1384613905849,1.16646
1384613965849,1.16126
1384614025861,1.15999
1384614085861,1.15217
1384614145861,1.16204
1384614205861,1.15019
1384614265861,1.15399
1384614325861,1.16157
1384614385861,1.14816
1384614445861,1.15573
1384614505861,1.15011
1384614565861,1.15664
1384614625861,1.15065
1384614685861,1.15104
1384614745861,1.14167
1384614805861,1.15073
1384614865861,1.14734
1384614925861,1.15170
1384614985861,1.15495
1384615045861,1.14584
1384615105861,1.15351
1384615165861,1.14519
1384615225861,1.15879
1384615285861,1.14797
1384615345861,1.14987
1384615405861,1.15270
1384615465861,1.16204
1384615525861,1.16074
1384615585861,1.15654
1384615645861,1.15389
1384615705861,1.15362
1384615765861,1.15431
1384615825861,1.15315
1384615885861,1.14772
1384615945861,1.14908
1384616005861,1.14574
1384616065861,1.13911
1384616125861,1.14189
1384616185861,1.14551
1384616245861,1.13455
1384616305861,1.13971
1384616365861,1.13859
1384616425861,1.14669
1384616485861,1.14580
1384616545861,1.14370
1384616605861,1.15073
1384616665861,1.16038
1384616725861,1.15448
1384616785861,1.15360
1384616845861,1.15844
1384616905861,1.15877
1384616965861,1.15722
1384617025861,1.15346
1384617085861,1.16015
1384617145861,1.15401
1384617205861,1.15925
1384617265861,1.15708
1384617325861,1.16027
1384617385861,1.16281
1384617445861,1.15952
1384617505861,1.16034
1384617565861,1.16289
1384617625872,1.15086
1384617685872,1.14702
1384617745872,1.14312
1384617805872,1.14351
1384617865872,1.14687
1384617925872,1.14798
1384617985872,1.13935
1384618045872,1.13802
1384618105872,1.13749
1384618165872,1.13421
1384618225872,1.13511
1384618285872,1.14462
1384618345872,1.13951
1384618405872,1.14198
1384618465872,1.14221
1384618525872,1.13622
1384618585872,1.14375
1384618645872,1.13532
1384618705872,1.14047
1384618765872,1.13312
1384618825872,1.13867
1384618885872,1.13888
1384618945872,1.13716
1384619005872,1.12846
1384619065872,1.13140
1384619125872,1.13874
1384619185872,1.14411
1384619245872,1.13533
1384619305872,1.13329
1384619365872,1.13447
1384619425872,1.14142
1384619485872,1.14209
1384619545872,1.12608
1384619605872,1.13180
1384619665872,1.14027
1384619725872,1.13454
1384619785872,1.13810
1384619845872,1.13132
1384619905872,1.13823
1384619965872,1.12533
1384620025872,1.13166
1384620085872,1.13669
1384620145872,1.14054
1384620205872,1.14622
1384620265872,1.14137
1384620325872,1.13395
1384620385872,1.13245
1384620445872,1.13135
1384620505872,1.13373
1384620565872,1.13695
1384620625872,1.12505
1384620685872,1.12938
1384620745872,1.12801
1384620805872,1.13299
1384620865872,1.12291
1384620925872,1.12334
1384620985872,1.12891
1384621045872,1.13224
1384621105872,1.13622
1384621165872,1.13633
1384621225884,1.13084
1384621285884,1.14474
1384621345884,1.14231
1384621405884,1.14348
1384621465884,1.15081
1384621525884,1.15500
1384621585884,1.16167
1384621645884,1.17317
1384621705884,1.17088
1384621765884,1.17793
1384621825884,1.16673
1384621885884,1.18639
1384621945884,1.20571
1384622005884,1.22931
1384622065884,1.23018
1384622125884,1.22117
1384622185884,1.22765
1384622245884,1.21831
1384622305884,1.21331
1384622365884,1.21466
1384622425884,1.21068
1384622485884,1.21238
1384622545884,1.19800
1384622605884,1.20651
1384622665884,1.19858
1384622725884,1.20125
1384622785884,1.19804
1384622845884,1.19639
1384622905884,1.18992
1384622965884,1.18870
1384623025884,1.18286
1384623085884,1.18035
1384623145884,1.17736
1384623205884,1.17770
1384623265884,1.16706
1384623325884,1.16324
1384623385884,1.15915
1384623445884,1.15714
1384623505884,1.14244
1384623565884,1.15143
1384623625884,1.15941
1384623685884,1.14283
1384623745884,1.15153
1384623805884,1.15869
1384623865884,1.15563
1384623925884,1.17375
1384623985884,1.18491
1384624045884,1.19593
1384624105884,1.19744
1384624165884,1.20574
1384624225884,1.20293
1384624285884,1.19277
1384624345884,1.20396
1384624405884,1.19649
1384624465884,1.19081
1384624525884,1.18257
1384624585884,1.18701
1384624645884,1.17529
1384624705884,1.16863
1384624765884,1.17562
1384624825895,1.18394
1384624885895,1.17085
1384624945895,1.16330
1384625005895,1.15887
1384625065895,1.16197
1384625125895,1.14910
1384625185895,1.14824
1384625245895,1.14488
1384625305895,1.14689
1384625365895,1.14943
1384625425895,1.14540
1384625485895,1.14803
1384625545895,1.14367
1384625605895,1.13976
1384625665895,1.14226
1384625725895,1.13765
1384625785895,1.13236
1384625845895,1.14107